Location: Torrington
(42.0650°N, 104.1810°W)
Time: 03:30:16
(UTC-06:00)

Daily predictions for brighter satellites

Satellite Brightness Start Highest point End
(mag) Time Altitude Azimuth Time Altitude Azimuth Time Altitude Azimuth
Cosmos 2184 Rocket 4.4 00:00:13 10° N 00:05:49 58° NE 00:05:49 58° NE
Cosmos 1709 Rocket 4.4 00:00:24 10° NNW 00:06:16 56° WNW 00:06:16 56° WNW
ATLAS CENTAUR R/B 3.8 00:18:46 20° N 00:18:46 20° N 00:20:21 10° NNE
ATLAS 3B R/B 2.7 00:15:58 10° NNW 00:22:22 68° NNE 00:22:22 68° NNE
Cosmos 2369 Rocket 3.3 00:17:43 10° N 00:22:20 36° NE 00:22:20 36° NE
Cosmos 1607 4.2 00:17:04 10° NNW 00:22:36 66° N 00:22:36 66° N
Cosmos 1943 Rocket 3.9 00:25:27 10° N 00:30:00 24° NE 00:30:31 24° ENE
Cosmos 2074 Rocket 4.3 00:29:35 10° N 00:34:44 62° NNW 00:34:44 62° NNW
Cosmos 2154 Rocket 4.4 00:39:49 10° N 00:45:08 59° NE 00:45:08 59° NE
SL-16 R/B 3.6 00:45:56 31° WNW 00:46:14 31° NW 00:51:15 10° N
USA 238 DEB 3.8 00:40:14 10° NNW 00:47:06 74° NNE 00:47:06 74° NNE
USA 238 3.8 00:40:19 10° NNW 00:47:13 74° NE 00:47:13 74° NE
CZ-2C R/B 3.7 01:03:15 10° N 01:07:29 42° NW 01:07:29 42° NW
NOSS 3-2 (C) 4.5 01:11:53 10° NNW 01:19:11 55° NE 01:22:05 37° ESE
Cosmos 2181 Rocket 4.2 01:31:34 72° NNE 01:31:34 72° NNE 01:37:19 10° N
Cosmos 2218 Rocket 4.4 01:25:36 10° N 01:31:15 56° ENE 01:31:15 56° ENE
COSMOS 2455 3.9 01:30:36 10° NNW 01:36:15 40° NE 01:37:28 36° E
Cosmos 1943 3.9 01:40:19 51° NNW 01:40:19 51° NNW 01:44:49 10° NNE
SL-8 Rocket 4.1 01:35:22 10° N 01:40:45 68° NNE 01:40:45 68° NNE
NOSS 3-4 (A) 3.8 01:46:41 59° ENE 01:46:41 59° ENE 01:52:08 10° NE
NOSS 3-4 (C) 3.8 01:46:47 59° ENE 01:46:47 59° ENE 01:52:14 10° NE
ATLAS 2AS CENTAUR R/B 4.2 01:42:54 24° W 01:46:39 36° NW 01:54:01 10° NNE
NOSS 3-2 (A) 3.8 01:50:40 10° NW 01:58:13 81° WSW 01:58:29 79° SSW
Cosmos 1809 Rocket 4.5 01:58:16 10° N 02:03:53 75° N 02:03:53 75° N
Cosmos 2369 Rocket 3.9 02:01:53 10° NW 02:04:07 21° WNW 02:04:07 21° WNW
ATLAS 3B R/B 4.5 02:07:51 10° WNW 02:09:36 16° WNW 02:09:36 16° WNW
Cosmos 1943 Rocket 3.3 02:08:36 10° NNW 02:12:00 35° NW 02:12:00 35° NW
Nadezhda 3 Rocket 4.3 02:19:59 55° ESE 02:20:33 57° E 02:26:45 10° NNE
BREEZE-M DEB (TANK) 3.4 02:24:22 57° NE 02:24:22 57° NE 02:32:04 10° ENE
Cosmos 2112 Rocket 4.3 02:25:21 64° NE 02:25:21 64° NE 02:29:52 10° NNE
Lacrosse 5 rocket 3.1 02:28:02 31° E 02:28:02 31° E 02:30:48 10° ENE
Aureole 1 Rocket 4.0 02:32:02 47° N 02:32:02 47° N 02:34:56 10° NNE
COSMOS 2406 3.1 02:44:19 88° SSE 02:44:22 89° ESE 02:50:09 10° NNE
Meteor 2-14 Rocket 4.5 02:38:52 10° NNW 02:44:41 63° W 02:44:41 63° W
USA 215 3.3 02:39:58 10° NE 02:46:30 73° NW 02:47:57 55° W
Cosmos 1825 Rocket 4.4 02:49:03 47° ENE 02:49:03 47° ENE 02:52:55 10° NNE
Meteor 2-16 Rocket 4.4 02:43:37 10° NNW 02:49:37 66° W 02:49:37 66° W
Cosmos 1656 Rocket 4.1 02:44:42 10° NNW 02:48:42 46° NW 02:48:42 46° NW
IRS-P3 4.0 02:46:18 10° NNE 02:51:40 85° WNW 02:51:40 85° WNW
Cosmos 2056 Rocket 3.8 02:47:56 10° NNW 02:53:14 65° ENE 02:54:19 52° ESE
RESURS DK-1 3.5 02:57:35 38° NNW 02:57:35 38° NNW 03:00:33 10° NNE
Cosmos 1680 Rocket 4.0 02:57:09 47° WNW 02:57:09 47° WNW 03:02:01 10° N
Meteor 1-22 Rocket 4.4 02:53:05 10° NNW 02:57:46 52° WNW 02:57:46 52° WNW
NOSS 2-2 (E) 4.0 02:59:33 57° ENE 02:59:33 57° ENE 03:03:32 10° NE
CBERS-1 3.9 02:55:53 10° NNE 03:01:01 84° WNW 03:01:04 84° W
ADEOS Rocket 3.7 02:56:42 10° NNE 03:02:45 52° E 03:05:31 33° SSE
Cosmos 1821 Rocket 3.9 02:57:47 10° N 03:03:57 85° E 03:05:36 52° SSE
SL-27 R/B 3.9 03:06:51 35° N 03:06:51 35° N 03:09:07 10° NNE
Cosmos 1470 4.4 03:05:20 10° NNE 03:08:49 30° ENE 03:09:57 26° ESE
NOSS 3-2 (C) 4.5 03:03:06 10° NW 03:09:26 39° WSW 03:09:26 39° WSW
CENTAUR R/B 3.1 03:02:16 10° NW 03:10:13 87° NE 03:18:41 10° SE
Cosmos 2239 Rocket 4.3 03:06:19 10° N 03:12:29 82° W 03:14:01 54° S
Resurs 1-4 Rocket 2.4 03:09:48 10° NNE 03:15:01 61° E 03:16:22 46° SSE
IRS-1D 3.7 03:13:29 10° NNE 03:18:43 68° ESE 03:20:05 48° SSE
USA 267 3.4 03:12:18 10° ESE 03:18:49 73° NE 03:25:21 10° NW
Cosmos 1934 Rocket 4.0 03:13:57 10° N 03:20:17 88° E 03:23:05 37° S
COSMOS 2455 3.8 03:16:41 10° NW 03:20:32 31° W 03:20:32 31° W
Cosmos 1535 Rocket 4.4 03:16:32 10° NNW 03:22:44 73° W 03:24:26 49° SSW
ARIANE 5 R/B 2.7 03:18:26 10° NNE 03:23:40 70° ESE 03:25:07 47° SSE
Cosmos 1605 Rocket 4.2 03:18:34 10° N 03:24:45 67° E 03:29:03 20° SSE
ADEOS 3.6 03:20:01 10° NNE 03:25:16 74° ESE 03:26:41 48° S
SL-08 R/B 4.1 03:26:21 36° WNW 03:26:21 36° WNW 03:29:55 10° NNW
Cosmos 1953 2.4 03:21:58 10° N 03:25:29 67° NNW 03:25:29 67° NNW
UNKNOWN OBJECT B 4.2 03:23:27 10° NNE 03:27:11 35° E 03:28:20 29° SE
SL-16 R/B 2.4 03:25:02 35° S 03:27:50 81° WSW 03:34:03 10° NNW
Cosmos 1452 Rocket 4.2 03:22:47 10° N 03:27:56 54° ENE 03:33:04 10° SE
NPP 4.1 03:23:32 10° N 03:28:39 45° WNW 03:29:22 42° W
Cosmos 1371 Rocket 4.4 03:24:09 10° NNW 03:28:56 46° W 03:28:56 46° W
Cosmos-2242 3.7 03:25:39 10° N 03:29:58 53° E 03:32:00 28° SE
Cosmos 1733 3.8 03:26:52 10° N 03:30:35 53° E 03:31:19 45° ESE
Cosmos 921 Rocket 3.1 03:30:55 10° NNW 03:35:12 60° W 03:35:12 60° W
NOSS 2-2 (D) 3.5 03:35:19 61° WNW 03:35:39 63° NW 03:40:18 10° NNE
CZ-2D R/B 2.0 03:30:44 10° NNE 03:36:03 89° WNW 03:37:39 47° SSW
Cosmos 1758 Rocket 3.6 03:43:40 56° W 03:43:59 58° W 03:48:16 10° N
MOZ.5/SAFIR/RUBIN 5/SL-8 4.3 03:40:25 13° SSE 03:44:29 59° ENE 03:49:07 10° N
COSMOS 2487 2.7 03:44:17 56° SE 03:44:36 59° ESE 03:48:08 10° NNE
Cosmos 1758 4.1 03:41:01 10° NNW 03:44:11 38° WNW 03:44:11 38° WNW
Cosmos 2278 3.9 03:42:02 10° NNW 03:47:46 75° ENE 03:53:28 10° SSE
Cosmos 1271 Rocket 4.0 03:44:46 10° NNW 03:46:54 26° NW 03:46:54 26° NW
NOSS 2-2 (C) 4.1 03:53:11 37° W 03:54:07 43° NW 03:58:38 10° NNE
Cosmos 2369 3.7 03:50:43 10° NNW 03:56:30 86° ENE 04:02:14 10° SSE
CZ-2D R/B 3.6 03:52:48 10° NNE 03:56:50 66° ESE 03:58:29 33° S
Cosmos 1818 3.9 03:55:17 35° WSW 03:57:13 52° NW 04:02:34 10° NNE
Cosmos 1656 4.0 03:54:22 10° NNW 03:59:47 64° ENE 04:05:10 10° SE
Lacrosse 5 rocket 2.8 04:03:43 24° W 04:05:45 34° NNW 04:10:02 10° NNE
Cosmos 839 Rocket 4.2 03:59:34 10° NW 04:05:51 60° WSW 04:13:18 10° SSE
Cosmos 1953 Rocket 4.4 04:05:25 31° W 04:06:03 33° WNW 04:10:07 10° N
Cosmos 1833 Rocket 3.1 04:03:42 21° S 04:07:26 61° ESE 04:12:58 10° NNE
Meteor 2-15 4.4 04:04:57 21° S 04:09:15 85° W 04:15:25 10° N
Cosmos 1980 Rocket 3.9 04:05:25 10° N 04:10:38 35° ENE 04:15:47 10° ESE
GEOS 3 Rocket 3.7 04:07:03 10° NNE 04:12:18 68° NW 04:15:10 28° SW
Cosmos 2082 Rocket 2.3 04:09:07 22° SSW 04:12:53 74° ESE 04:18:36 10° NNE
ADEOS II 3.6 04:10:32 10° NNE 04:15:20 35° E 04:20:05 10° SSE
DNEPR-1 R/B 3.8 04:12:57 10° NW 04:16:59 44° WSW 04:21:18 10° S
Meteor 2-15 Rocket 4.4 04:14:08 16° S 04:19:08 84° W 04:25:18 10° N
Landsat 4 3.8 04:18:14 10° SSE 04:21:57 74° ENE 04:25:42 10° N
Meteor 2-5 Rocket 3.8 04:20:19 19° SSW 04:24:29 71° W 04:30:22 10° N
EXPRESS MD2 3.2 04:19:29 10° WNW 04:25:13 86° SW 04:28:12 10° SE
Cosmos 389 Rocket 3.4 04:22:18 10° NNW 04:25:28 29° W 04:25:40 29° W
GPS 2-05 Rocket1 4.1 04:25:25 25° S 04:25:59 26° S 04:28:57 10° ESE
Cosmos 1378 3.2 04:24:42 29° SSW 04:26:25 60° W 04:30:08 10° N
Cosmos 1707 3.4 04:29:01 27° WSW 04:30:19 35° WNW 04:33:55 10° N
Cosmos 158 Rocket 3.9 04:28:09 16° SSW 04:32:11 84° ESE 04:37:23 10° NNE
Cosmos 2061 Rocket 4.1 04:26:48 10° N 04:33:03 83° E 04:39:15 10° S
Cosmos 2098 Rocket 3.7 04:31:01 10° NW 04:32:37 19° WNW 04:32:37 19° WNW
Cosmos 1727 Rocket 4.3 04:29:47 20° SW 04:33:52 46° WNW 04:39:48 10° N
CZ-4B R/B 3.8 04:32:41 10° NNE 04:36:59 55° E 04:41:24 10° S
Meteor 1-16 Rocket 4.2 04:34:07 10° NNW 04:39:20 55° W 04:44:29 10° S
Cosmos 2016 Rocket 4.3 04:33:13 10° N 04:39:30 72° E 04:45:48 10° SSE
Okean 3 Rocket 4.3 04:35:32 10° S 04:39:49 54° E 04:44:10 10° NNE
Meteor 2-1 Rocket 4.4 04:34:21 10° N 04:40:04 82° E 04:45:52 10° SSE
Cosmos 1470 4.3 04:42:01 10° NW 04:44:41 18° W 04:45:18 17° W
ADEOS Rocket 4.2 04:42:56 10° N 04:48:01 28° WNW 04:52:29 14° WSW
USA 161 2.8 04:49:23 20° WSW 04:49:47 21° W 04:52:02 10° NW
In-Cosmos 22 4.2 04:45:51 10° S 04:51:08 80° E 04:56:27 10° NNE
Resurs 1-4 Rocket 3.7 04:50:49 10° NNW 04:54:22 19° WNW 04:57:28 12° W
Okean O Rocket 1.6 04:51:14 10° NNE 04:55:42 86° E 05:00:05 10° SSW
Cosmos 1459 Rocket 4.1 04:52:16 10° NNW 04:58:18 58° W 05:04:25 10° S
CENTAUR R/B 4.1 04:54:19 10° WNW 05:00:17 23° WSW 05:06:26 10° SSW
Abrixas 3.6 04:57:57 10° NW 05:00:37 39° NNE 05:03:18 10° E
USA 267 3.8 04:56:24 10° S 05:02:08 33° SW 05:07:55 10° WNW
ARIANE 5 R/B 4.3 04:59:01 10° NNW 05:02:11 16° WNW 05:05:20 10° W
Cosmos 1802 Rocket 4.1 04:56:45 10° NNW 05:03:06 64° W 05:09:23 10° S
Gbstr 26 Del rocket 4.5 04:57:27 10° NW 05:05:18 78° NNE 05:11:52 10° ESE
NOSS 8 (H) 4.4 05:03:40 11° SSW 05:06:58 86° ESE 05:10:33 10° NE
CZ-2C R/B 3.8 05:02:49 10° SSE 05:07:14 79° ENE 05:11:44 10° N
SL-16 R/B 4.2 05:10:26 10° WSW 05:12:21 11° W 05:14:16 10° WNW
Cosmos 1725 Rocket 4.1 05:06:42 10° N 05:13:00 90° W 05:19:19 10° S
Cosmos 2360 4.3 05:07:43 10° NNW 05:13:29 88° ENE 05:19:12 10° SSE
Cosmos 1408 Rocket 4.3 05:09:49 10° S 05:14:12 59° E 05:18:36 10° NNE
MOS 1 Rocket 4.4 05:11:23 10° NNW 05:14:58 25° WNW 05:18:40 10° WSW
CZ-2D R/B 4.1 05:13:08 10° NNW 05:15:17 13° WNW 05:17:28 10° W
Meteor 1-24 Rocket 4.2 05:10:06 10° SW 05:15:19 43° WNW 05:20:45 10° N
Cosmos 1697 Rocket 3.1 05:14:16 10° NW 05:19:29 40° WSW 05:24:40 10° S
PSLV R/B 3.6 05:16:54 10° N 05:21:14 63° WNW 05:25:29 10° SSW
SL-08 R/B 4.5 05:16:57 10° NNW 05:22:59 63° W 05:28:57 10° S
